Regional Weather Roundup
Issued by NWS

Home | Current Version | Previous Version | Graphics & Text | Print | Product List | Glossary On
Versions: 1 2 3 4 5 6 7 8 9 10 11 12 13 14 15 16 17 18 19 20 21 22 23 24 25 26 27 28 29 30 31 32 33 34 35 36 37 38 39 40 41 42 43 44 45 46 47 48 49 50
000
ASUS43 KMKX 222011
RWRWI

WISCONSIN REGIONAL WEATHER ROUNDUP
NATIONAL WEATHER SERVICE MILWAUKEE/SULLIVAN WI
200 PM CST WED FEB 22 2017

NOTE: "FAIR" INDICATES FEW OR NO CLOUDS BELOW 12,000 FEET WITH NO
SIGNIFICANT WEATHER AND/OR OBSTRUCTIONS TO VISIBILITY.

WIZ001-002-006>008-014>016-023>028-222100-
NORTHWEST WISCONSIN

CITY           SKY/WX    TMP DP  RH WIND       PRES   REMARKS
SUPERIOR ARPT  CLOUDY    44  36  74 NE10G16   29.60F
ASHLAND        CLOUDY    43  35  73 N9        29.62S
HAYWARD        PTSUNNY   47  43  86 NE8       29.55F
SIREN          CLOUDY    49  48  97 E6        29.55F
CUMBERLAND     CLOUDY    46  43  87 N3        29.53F
RICE LAKE      CLOUDY    50  44  79 CALM      29.53F
CHETEK         CLOUDY    52  43  71 E9        29.52F
LADYSMITH      LGT RAIN  50  42  74 NE3       29.57F
EAU CLAIRE     PTSUNNY   55  40  56 SE6       29.55R
MENOMONIE      CLOUDY    52  42  68 SE9       29.53F
NEW RICHMOND   CLOUDY    54  43  66 CALM      29.53F
OSCEOLA        CLOUDY    50  49  95 NW3       29.56F
$$

WIZ003>005-009-010-017-018-222100-
NORTH CENTRAL WISCONSIN

CITY           SKY/WX    TMP DP  RH WIND       PRES   REMARKS
MANITOWISH WTR RAIN      41  41 100 CALM      29.57S
ARBOR VITAE    CLOUDY    49  43  78 NW6         N/A
WOODRUFF       CLOUDY    49  43  78 NW6         N/A
RHINELANDER    CLOUDY    53  40  61 NW7       29.56F
EAGLE RIVER    CLOUDY    50  39  66 N7        29.55F
LAND O LAKES   CLOUDY    46  40  78 N6        29.58F
PHILLIPS       DRIZZLE   47  44  87 NE5       29.56S
TOMAHAWK       PTSUNNY   52  39  61 NW6       29.58R
MEDFORD        CLOUDY    51  41  68 CALM      29.55S
MERRILL        NOT AVBL
$$

WIZ029-030-035-036-043>047-222100-
CENTRAL WISCONSIN

CITY           SKY/WX    TMP DP  RH WIND       PRES   REMARKS
WAUSAU         MOSUNNY   55  37  50 SW6       29.54S
MOSINEE        PTSUNNY   55  37  50 VRB3      29.56F
MARSHFIELD     CLOUDY    57  39  51 W8        29.55S
STEVENS POINT  CLOUDY    57  35  44 SW8       29.55S
WAUPACA        SUNNY     69  38  33 W6        29.53F
WAUTOMA        SUNNY     67  42  40 SW13      29.53F
WISC RAPIDS    CLOUDY    58  37  45 W9        29.55F
CAMP DOUGLAS   PTSUNNY   64  39  39 SW10      29.53F
$$

WIZ011>013-019>022-031-037>040-048>050-222100-
NORTHEAST WISCONSIN

CITY           SKY/WX    TMP DP  RH WIND       PRES   REMARKS
ANTIGO         MOSUNNY   53  38  58 CALM      29.55S
SHAWANO        MOSUNNY   61  43  51 SW5       29.54F
OCONTO         CLOUDY    60  44  55 SE5       29.53F
STURGEON BAY   PTSUNNY   51  45  79 S8        29.55F
GREEN BAY      SUNNY     63  51  65 SW10      29.53F
MANITOWOC      SUNNY     53  45  74 S10       29.55F
APPLETON       PTSUNNY   64  43  45 SW13      29.52F
CLINTONVILLE   SUNNY     61  43  51 W3        29.53F
OSHKOSH        SUNNY     65  48  54 SW18G26   29.53F
$$

WIZ032>034-041-042-053>061-222100-
SOUTHWEST WISCONSIN

CITY           SKY/WX    TMP DP  RH WIND       PRES   REMARKS
LA CROSSE      CLOUDY    60  39  45 S5        29.54F
SPARTA         CLOUDY    59  39  47 NW8       29.54F
VIROQUA        CLOUDY    60  39  46 SW10      29.56S
BOSCOBEL       CLOUDY    66  42  41 SW8       29.55F
PRAIRIE DU CHI MOSUNNY   64  40  40 SW5       29.55F
PLATTEVILLE    SUNNY     70  49  46 S20       29.57F
$$

WIZ056-057-062-063-064-067-068-222100-
SOUTH CENTRAL WISCONSIN

CITY           SKY/WX    TMP DP  RH WIND       PRES   REMARKS
REEDSBURG      CLOUDY    64  44  47 SW13G22   29.54F
BARABOO/DELLS  CLOUDY    65  42  42 SW13      29.54F
LONE ROCK      CLOUDY    66  45  46 SW9       29.56F
MINERAL POINT  MOSUNNY   68  46  45 SW12      29.58F
MADISON        PTSUNNY   67  46  47 S13G20    29.57F
MIDDLETON      MOSUNNY   68  46  45 SW12      29.57F
WATERTOWN      SUNNY     66  48  52 S17       29.57F
MONROE         SUNNY     66  50  55 S20       29.59F
JANESVILLE     MOSUNNY   70  48  46 S18       29.61F
$$

WIZ051-052-058>065-066-070>072-222100-
SOUTHEAST WISCONSIN

CITY           SKY/WX    TMP DP  RH WIND       PRES   REMARKS
MILWAUKEE      MOSUNNY   70  50  49 SW18G26   29.61F
WAUKESHA       SUNNY     64  48  55 S17G25    29.62F
MILWAUKEE/TIMM SUNNY     66  45  45 SW16G26   29.61F
RACINE         SUNNY     68  49  50 SW14G24   29.63F
KENOSHA        SUNNY     68  51  54 SW15G23   29.63F
FOND DU LAC    SUNNY     65  49  56 S15G21    29.54F
SHEBOYGAN      SUNNY     69  46  43 S22       29.55F
WEST BEND      SUNNY     68  45  42 SW16G26   29.56F
JUNEAU         MOSUNNY   65  49  56 S16       29.58F
$$

LSZ147-162-222100-
LAKE SUPERIOR

STATION/POSITION TIME  TEMP    WIND        PRES    WAVE
                       AIR SEA DIR/SP/G            HT/PER
                 (UTC) (F)     (DEG/KT/KT) (MB)    (FT/S)
DEVILS ISLAND    2000   35      60/  8/  9 1004.0F
PORT WING        1940   35      30/  8/  9 1003.4S
SAXON HARBOR     1930   37      CALM  /  3 1002.7F
$$

LMZ867-665-643>646-222100-
LAKE MICHIGAN

STATION/POSITION TIME  TEMP    WIND        PRES    WAVE
                       AIR SEA DIR/SP/G            HT/PER
                 (UTC) (F)     (DEG/KT/KT) (MB)    (FT/S)
CHAMBERS ISLAND  1940   54     160/  4/  9 1000.3F
NORTHPORT PIER   1940   44     170/  7/ 13 1001.4F
SISTER BAY       1935   51     160/ 12/ 15   N/A
KEWAUNEE LAKESHO 1948   39     170/ 10/ 11 1000.7F
SHEBOYGAN LAKESH 2000   47     180/ 25/ 26 1000.7F
PORT WASHINGTON  1930   51     180/ 10/ 13 1003.0F
MILWAUKEE LAKESH 1950   65     220/ 15/ 20   N/A
KENOSHA   LAKESH 2000   52     160/ 10/ 14 1003.4
$$

TC  - TEMPERATURE IN CELSIUS
VSB - VISIBILITY IN STATUTE MILES
WCI - WIND CHILL INDEX
HX  - HEAT INDEX





USA.gov is the U.S. government's official web portal to all federal, state and local government web resources and services.